Location: Del Amo
(33.8464°N, 118.2104°W)
Time: 19:46:16
(UTC+00:00)

S-56A Canister/Altair - Pass Details

Date: 18 September 2024
Orbit: 636 x 2487 km, 38.9° (Epoch: 14 October)

Event Time Altitude Azimuth Distance (km) Brightness Sun altitude
Rises 00:06:13 0° 222° (SW) 2,912 11.4 21.7°
Reaches altitude 10° 00:08:31 10° 214° (SW) 2,029 10.5 21.3°
Maximum altitude 00:12:42 38° 145° (SE) 1,066 8.3 20.4°
Drops below altitude 10° 00:17:49 10° 78° (ENE) 2,482 9.6 19.4°
Sets 00:20:54 0° 71° (ENE) 3,665 10.4 18.8°
